Location: Bessat
(45.8735°N, 1.9924°E)
Time: 22:23:46
(UTC+00:00)

Cosmos 1818 - Pass Details

Date: 11 May 2021
Orbit: 771 x 802 km, 65.0° (Epoch: 24 June)

Event Time Altitude Azimuth Distance (km) Brightness Sun altitude
Rises 22:25:00 0° 325° (NW) 3,320 8.1 -23.3°
Reaches altitude 10° 22:27:28 10° 328° (NNW) 2,387 7.1 -23.4°
Maximum altitude 22:32:57 68° 51° (NE) 866 3.7 -23.8°
Enters shadow 22:34:14 50° 111° (ESE) 1,010 3.8 -23.8°
